Location: Proctor
(47.8934°N, 114.3048°W)
Time: 14:23:00
(UTC+00:00)

POLYITAN 1 - Pass Details

Date: 02 July 2022
Orbit: 586 x 605 km, 98.0° (Epoch: 18 August)

Event Time Altitude Azimuth Distance (km) Brightness Sun altitude
Rises 09:28:50 0° 14° (NNE) 2,862 ? -15.1°
Reaches altitude 10° 09:31:00 10° 15° (NNE) 1,957 ? -14.9°
Maximum altitude 09:35:16 82° 104° (ESE) 617 ? -14.6°
Enters shadow 09:37:54 23° 190° (S) 1,302 ? -14.4°
